| time (UTC) | temp F | wind direction | speed MPH | gust MPH | rain 1hr in | rain 24hr in | rain mn in | humidity % | barometer mb |
| 20260510040745 | 50 | 97 | 1.0 | 2.0 | 0.00 | 0.00 | 0.00 | 64 | 1009.5 |
| 20260510040242 | 50 | 89 | 2.0 | 2.0 | 0.00 | 0.00 | 0.00 | 64 | 1009.5 |
| 20260510035737 | 51 | 89 | 2.0 | 3.0 | 0.00 | 0.10 | 0.10 | 64 | 1009.3 |
| 20260510035227 | 51 | 95 | 2.0 | 3.0 | 0.00 | 0.10 | 0.10 | 63 | 1009.1 |
| 20260510034723 | 51 | 124 | 1.0 | 2.0 | 0.00 | 0.10 | 0.10 | 63 | 1009.2 |
| 20260510034222 | 51 | 104 | 0.0 | 1.0 | 0.00 | 0.10 | 0.10 | 62 | 1009.0 |
| 20260510033717 | 51 | 67 | 2.0 | 3.0 | 0.00 | 0.10 | 0.10 | 62 | 1009.0 |
| 20260510033216 | 52 | 56 | 1.0 | 2.0 | 0.00 | 0.10 | 0.10 | 61 | 1009.0 |
| 20260510032711 | 53 | 62 | 0.0 | 3.0 | 0.00 | 0.10 | 0.10 | 59 | 1009.0 |
| 20260510032207 | 53 | 88 | 1.0 | 3.0 | 0.00 | 0.10 | 0.10 | 58 | 1009.0 |
| 20260510031702 | 54 | 31 | 1.0 | 5.0 | 0.00 | 0.10 | 0.10 | 58 | 1008.6 |
| 20260510031159 | 54 | 19 | 2.0 | 3.0 | 0.00 | 0.10 | 0.10 | 57 | 1008.6 |
| 20260510030658 | 54 | 329 | 3.0 | 4.0 | 0.00 | 0.10 | 0.10 | 56 | 1008.6 |
| 20260510030156 | 53 | 15 | 0.0 | 6.0 | 0.00 | 0.10 | 0.10 | 58 | 1008.5 |
| 20260510025653 | 53 | 96 | 2.0 | 2.0 | 0.00 | 0.10 | 0.10 | 59 | 1008.4 |
| 20260510025150 | 54 | 139 | 0.0 | 2.0 | 0.00 | 0.10 | 0.10 | 58 | 1008.5 |
| 20260510024648 | 55 | 101 | 1.0 | 2.0 | 0.00 | 0.10 | 0.10 | 57 | 1008.3 |
| 20260510024144 | 55 | 323 | 3.0 | 5.0 | 0.00 | 0.10 | 0.10 | 55 | 1008.4 |
| 20260510023639 | 55 | 347 | 1.0 | 5.0 | 0.00 | 0.10 | 0.10 | 55 | 1008.3 |
| 20260510023137 | 55 | 322 | 3.0 | 4.0 | 0.00 | 0.10 | 0.10 | 54 | 1008.2 |
| 20260510022637 | 56 | 358 | 3.0 | 9.0 | 0.00 | 0.10 | 0.10 | 54 | 1008.0 |
| 20260510022132 | 56 | 24 | 5.0 | 6.0 | 0.00 | 0.10 | 0.10 | 54 | 1008.1 |
| 20260510021627 | 56 | 42 | 2.0 | 7.0 | 0.00 | 0.10 | 0.10 | 53 | 1007.9 |
| 20260510021126 | 57 | 335 | 5.0 | 11.0 | 0.00 | 0.10 | 0.10 | 52 | 1008.0 |
| 20260510020620 | 57 | 53 | 5.0 | 7.0 | 0.00 | 0.10 | 0.10 | 52 | 1007.8 |
| 20260510020116 | 57 | 332 | 0.0 | 6.0 | 0.00 | 0.10 | 0.10 | 52 | 1007.6 |
| 20260510015612 | 57 | 307 | 5.0 | 6.0 | 0.00 | 0.10 | 0.10 | 50 | 1007.3 |
| 20260510015108 | 57 | 324 | 4.0 | 5.0 | 0.00 | 0.10 | 0.10 | 51 | 1007.3 |
| 20260510014603 | 57 | 358 | 3.0 | 4.0 | 0.00 | 0.10 | 0.10 | 51 | 1007.3 |
| 20260510014101 | 57 | 309 | 4.0 | 5.0 | 0.00 | 0.10 | 0.10 | 50 | 1007.0 |
| 20260510013555 | 58 | 338 | 5.0 | 11.0 | 0.00 | 0.10 | 0.10 | 49 | 1006.9 |
| 20260510013051 | 58 | 3 | 2.0 | 10.0 | 0.00 | 0.10 | 0.10 | 49 | 1006.8 |
| 20260510012545 | 58 | 327 | 4.0 | 11.0 | 0.00 | 0.10 | 0.10 | 48 | 1006.5 |
| 20260510012042 | 59 | 89 | 4.0 | 8.0 | 0.00 | 0.10 | 0.10 | 47 | 1006.2 |
| 20260510011541 | 59 | 26 | 7.0 | 12.0 | 0.00 | 0.10 | 0.10 | 47 | 1006.2 |
| 20260510011037 | 60 | 17 | 5.0 | 12.0 | 0.00 | 0.10 | 0.10 | 46 | 1005.9 |
| 20260510010534 | 60 | 27 | 2.0 | 9.0 | 0.00 | 0.10 | 0.10 | 47 | 1005.7 |
| 20260510010032 | 61 | 34 | 4.0 | 11.0 | 0.00 | 0.10 | 0.10 | 46 | 1005.6 |
| 20260510005527 | 61 | 351 | 1.0 | 4.0 | 0.00 | 0.10 | 0.10 | 48 | 1005.3 |
| 20260510005025 | 61 | 337 | 2.0 | 5.0 | 0.00 | 0.10 | 0.10 | 50 | 1005.2 |
| 20260510004522 | 62 | 330 | 3.0 | 5.0 | 0.00 | 0.10 | 0.10 | 48 | 1005.2 |
| 20260510004020 | 62 | 194 | 3.0 | 6.0 | 0.00 | 0.10 | 0.10 | 49 | 1005.1 |
| 20260510003516 | 61 | 335 | 2.0 | 4.0 | 0.00 | 0.10 | 0.10 | 51 | 1004.9 |
| 20260510003012 | 62 | 149 | 2.0 | 4.0 | 0.00 | 0.10 | 0.10 | 51 | 1004.7 |
| 20260510002508 | 62 | 303 | 2.0 | 5.0 | 0.00 | 0.10 | 0.10 | 50 | 1004.7 |
| 20260510002005 | 62 | 156 | 2.0 | 3.0 | 0.00 | 0.10 | 0.10 | 50 | 1004.7 |
| 20260510001502 | 62 | 58 | 0.0 | 3.0 | 0.00 | 0.10 | 0.10 | 49 | 1004.5 |
| 20260510001000 | 62 | 12 | 3.0 | 4.0 | 0.00 | 0.10 | 0.10 | 49 | 1004.5 |
| 20260510000456 | 63 | 295 | 2.0 | 5.0 | 0.00 | 0.10 | 0.10 | 50 | 1004.5 |
| 20260509235952 | 63 | 14 | 2.0 | 7.0 | 0.00 | 0.10 | 0.10 | 48 | 1004.3 |
| 20260509235449 | 63 | 165 | 2.0 | 7.0 | 0.00 | 0.10 | 0.10 | 48 | 1004.2 |
| 20260509234945 | 62 | 133 | 0.0 | 5.0 | 0.00 | 0.10 | 0.10 | 50 | 1004.1 |
| 20260509234442 | 63 | 128 | 2.0 | 3.0 | 0.00 | 0.10 | 0.10 | 51 | 1004.1 |
| 20260509233940 | 63 | 213 | 0.0 | 5.0 | 0.00 | 0.10 | 0.10 | 50 | 1004.1 |
| 20260509233437 | 64 | 232 | 0.0 | 2.0 | 0.00 | 0.10 | 0.10 | 48 | 1004.0 |
| 20260509232933 | 64 | 278 | 0.0 | 3.0 | 0.00 | 0.10 | 0.10 | 48 | 1003.9 |
| 20260509232431 | 64 | 124 | 0.0 | 7.0 | 0.00 | 0.10 | 0.10 | 47 | 1003.9 |
| 20260509231927 | 64 | 187 | 3.0 | 4.0 | 0.00 | 0.10 | 0.10 | 47 | 1003.8 |
| 20260509231424 | 65 | 268 | 5.0 | 6.0 | 0.00 | 0.10 | 0.10 | 46 | 1004.0 |
| 20260509230922 | 66 | 117 | 2.0 | 5.0 | 0.00 | 0.10 | 0.10 | 46 | 1003.8 |
| 20260509230418 | 66 | 119 | 2.0 | 10.0 | 0.00 | 0.10 | 0.10 | 44 | 1004.0 |
| 20260509225914 | 66 | 105 | 2.0 | 7.0 | 0.00 | 0.10 | 0.10 | 44 | 1003.9 |
| 20260509225411 | 67 | 215 | 6.0 | 9.0 | 0.00 | 0.10 | 0.10 | 42 | 1003.8 |
| 20260509224907 | 66 | 183 | 4.0 | 10.0 | 0.00 | 0.10 | 0.10 | 42 | 1003.7 |
| 20260509224403 | 68 | 298 | 4.0 | 8.0 | 0.00 | 0.10 | 0.10 | 41 | 1003.7 |
| 20260509223900 | 67 | 328 | 3.0 | 9.0 | 0.00 | 0.10 | 0.10 | 43 | 1003.5 |
| 20260509223351 | 67 | 179 | 3.0 | 8.0 | 0.00 | 0.10 | 0.10 | 41 | 1003.5 |
| 20260509222849 | 67 | 19 | 3.0 | 9.0 | 0.00 | 0.10 | 0.10 | 40 | 1003.4 |
| 20260509222349 | 67 | 251 | 4.0 | 11.0 | 0.00 | 0.10 | 0.10 | 40 | 1003.1 |
| 20260509221844 | 67 | 7 | 3.0 | 7.0 | 0.00 | 0.10 | 0.10 | 40 | 1003.4 |
| 20260509221342 | 68 | 226 | 2.0 | 11.0 | 0.00 | 0.10 | 0.10 | 38 | 1003.2 |
| 20260509220837 | 68 | 305 | 3.0 | 14.0 | 0.00 | 0.10 | 0.10 | 38 | 1003.2 |
| 20260509220334 | 68 | 159 | 5.0 | 7.0 | 0.00 | 0.10 | 0.10 | 39 | 1003.0 |
| 20260509215829 | 68 | 89 | 5.0 | 11.0 | 0.00 | 0.10 | 0.10 | 40 | 1002.9 |
| 20260509215326 | 69 | 79 | 2.0 | 7.0 | 0.00 | 0.10 | 0.10 | 38 | 1002.9 |
| 20260509214823 | 68 | 134 | 3.0 | 9.0 | 0.00 | 0.10 | 0.10 | 39 | 1002.5 |
| 20260509214320 | 66 | 180 | 2.0 | 7.0 | 0.00 | 0.10 | 0.10 | 42 | 1002.6 |
| 20260509213818 | 66 | 192 | 1.0 | 14.0 | 0.00 | 0.10 | 0.10 | 42 | 1002.6 |
| 20260509213312 | 67 | 309 | 0.0 | 8.0 | 0.00 | 0.10 | 0.10 | 41 | 1002.8 |
| 20260509212810 | 67 | 329 | 2.0 | 11.0 | 0.00 | 0.10 | 0.10 | 42 | 1002.5 |
| 20260509212308 | 68 | 336 | 3.0 | 7.0 | 0.00 | 0.10 | 0.10 | 40 | 1002.5 |
| 20260509211803 | 70 | 210 | 3.0 | 23.0 | 0.00 | 0.10 | 0.10 | 38 | 1002.4 |
| 20260509211259 | 69 | 358 | 4.0 | 12.0 | 0.00 | 0.10 | 0.10 | 41 | 1002.3 |
| 20260509210756 | 67 | 53 | 1.0 | 13.0 | 0.00 | 0.10 | 0.10 | 43 | 1002.3 |
| 20260509210254 | 69 | 261 | 3.0 | 9.0 | 0.00 | 0.10 | 0.10 | 40 | 1002.4 |
| 20260509205753 | 69 | 180 | 9.0 | 11.0 | 0.00 | 0.10 | 0.10 | 41 | 1002.6 |
| 20260509205248 | 70 | 343 | 4.0 | 12.0 | 0.00 | 0.10 | 0.10 | 41 | 1002.5 |
| 20260509204744 | 69 | 207 | 3.0 | 10.0 | 0.00 | 0.10 | 0.10 | 44 | 1002.3 |
| 20260509204241 | 69 | 200 | 3.0 | 11.0 | 0.00 | 0.10 | 0.10 | 42 | 1002.5 |
| 20260509203737 | 69 | 169 | 5.0 | 9.0 | 0.00 | 0.10 | 0.10 | 42 | 1002.5 |
| 20260509203235 | 68 | 348 | 2.0 | 5.0 | 0.00 | 0.10 | 0.10 | 43 | 1002.5 |
| 20260509202730 | 68 | 221 | 1.0 | 8.0 | 0.00 | 0.10 | 0.10 | 47 | 1002.6 |
| 20260509202227 | 67 | 187 | 3.0 | 7.0 | 0.00 | 0.10 | 0.10 | 46 | 1002.6 |
| 20260509201721 | 67 | 180 | 3.0 | 9.0 | 0.00 | 0.10 | 0.10 | 46 | 1003.0 |
| 20260509201218 | 66 | 213 | 3.0 | 11.0 | 0.00 | 0.10 | 0.10 | 50 | 1003.0 |
| 20260509200715 | 67 | 177 | 5.0 | 13.0 | 0.00 | 0.10 | 0.10 | 46 | 1003.0 |
| 20260509200210 | 65 | 190 | 4.0 | 7.0 | 0.00 | 0.10 | 0.10 | 49 | 1003.1 |
| 20260509195705 | 64 | 165 | 4.0 | 6.0 | 0.00 | 0.10 | 0.10 | 52 | 1003.2 |
| 20260509195200 | 63 | 138 | 3.0 | 5.0 | 0.00 | 0.10 | 0.10 | 51 | 1003.4 |
| 20260509194655 | 63 | 284 | 3.0 | 7.0 | 0.00 | 0.10 | 0.10 | 50 | 1003.5 |
| 20260509194152 | 62 | 172 | 4.0 | 9.0 | 0.00 | 0.10 | 0.10 | 50 | 1003.7 |
| 20260509193649 | 63 | 205 | 4.0 | 12.0 | 0.00 | 0.10 | 0.10 | 49 | 1003.7 |
| 20260509193144 | 64 | 211 | 4.0 | 11.0 | 0.00 | 0.10 | 0.10 | 51 | 1003.6 |
| 20260509192641 | 64 | 111 | 5.0 | 8.0 | 0.00 | 0.10 | 0.10 | 51 | 1003.4 |
| 20260509192135 | 64 | 20 | 5.0 | 11.0 | 0.00 | 0.10 | 0.10 | 52 | 1003.2 |
| 20260509191630 | 64 | 332 | 3.0 | 7.0 | 0.00 | 0.10 | 0.10 | 51 | 1003.1 |
| 20260509191127 | 65 | 136 | 3.0 | 7.0 | 0.00 | 0.10 | 0.10 | 50 | 1003.1 |
| 20260509190623 | 66 | 208 | 3.0 | 8.0 | 0.00 | 0.10 | 0.10 | 51 | 1003.2 |
| 20260509190121 | 66 | 187 | 4.0 | 9.0 | 0.00 | 0.10 | 0.10 | 52 | 1003.0 |
| 20260509185618 | 65 | 180 | 5.0 | 13.0 | 0.00 | 0.10 | 0.10 | 53 | 1003.1 |
| 20260509185114 | 65 | 306 | 3.0 | 9.0 | 0.00 | 0.10 | 0.10 | 51 | 1003.0 |
| 20260509184612 | 65 | 170 | 5.0 | 8.0 | 0.00 | 0.10 | 0.10 | 55 | 1002.9 |
| 20260509184109 | 64 | 242 | 4.0 | 10.0 | 0.00 | 0.10 | 0.10 | 55 | 1002.9 |
| 20260509183604 | 64 | 202 | 3.0 | 10.0 | 0.00 | 0.10 | 0.10 | 57 | 1002.8 |
| 20260509183100 | 64 | 154 | 6.0 | 8.0 | 0.00 | 0.10 | 0.10 | 62 | 1003.0 |
| 20260509182557 | 62 | 100 | 3.0 | 11.0 | 0.00 | 0.10 | 0.10 | 70 | 1002.5 |
| 20260509182053 | 60 | 166 | 7.0 | 11.0 | 0.00 | 0.10 | 0.10 | 78 | 1002.4 |
| 20260509181552 | 59 | 138 | 2.0 | 7.0 | 0.00 | 0.10 | 0.10 | 84 | 1002.4 |
| 20260509181049 | 57 | 182 | 6.0 | 7.0 | 0.00 | 0.10 | 0.10 | 86 | 1002.3 |
| 20260509180544 | 57 | 177 | 3.0 | 5.0 | 0.45 | 0.10 | 0.10 | 87 | 1002.8 |
| 20260509180042 | 57 | 223 | 1.0 | 13.0 | 0.54 | 0.09 | 0.09 | 82 | 1002.2 |
| 20260509175537 | 63 | 184 | 1.0 | 7.0 | 0.14 | 0.02 | 0.02 | 72 | 1002.5 |
| 20260509175035 | 65 | 333 | 2.0 | 8.0 | 0.00 | 0.00 | 0.00 | 57 | 1001.8 |
| 20260509174531 | 66 | 104 | 3.0 | 7.0 | 0.00 | 0.00 | 0.00 | 53 | 1001.7 |
| 20260509174026 | 66 | 184 | 13.0 | 18.0 | 0.00 | 0.00 | 0.00 | 52 | 1002.0 |
| 20260509173520 | 67 | 169 | 4.0 | 9.0 | 0.00 | 0.00 | 0.00 | 51 | 1001.9 |
| 20260509173018 | 67 | 163 | 3.0 | 14.0 | 0.00 | 0.00 | 0.00 | 51 | 1002.0 |
| 20260509172515 | 68 | 198 | 4.0 | 10.0 | 0.00 | 0.00 | 0.00 | 51 | 1002.0 |
| 20260509172010 | 68 | 180 | 5.0 | 13.0 | 0.00 | 0.00 | 0.00 | 49 | 1002.0 |
| 20260509171506 | 68 | 192 | 4.0 | 11.0 | 0.00 | 0.00 | 0.00 | 49 | 1002.2 |
| 20260509171003 | 68 | 194 | 5.0 | 10.0 | 0.00 | 0.00 | 0.00 | 50 | 1002.4 |
| 20260509170458 | 68 | 178 | 7.0 | 10.0 | 0.00 | 0.00 | 0.00 | 49 | 1002.4 |
| 20260509165954 | 68 | 186 | 5.0 | 15.0 | 0.00 | 0.00 | 0.00 | 48 | 1002.1 |
| 20260509165453 | 68 | 175 | 7.0 | 16.0 | 0.00 | 0.00 | 0.00 | 49 | 1002.1 |
| 20260509164949 | 69 | 159 | 3.0 | 12.0 | 0.00 | 0.00 | 0.00 | 50 | 1002.1 |
| 20260509164445 | 69 | 161 | 7.0 | 11.0 | 0.00 | 0.00 | 0.00 | 50 | 1002.1 |
| 20260509163941 | 69 | 180 | 4.0 | 14.0 | 0.00 | 0.00 | 0.00 | 50 | 1002.1 |
| 20260509163439 | 69 | 161 | 2.0 | 10.0 | 0.00 | 0.00 | 0.00 | 50 | 1002.2 |
| 20260509162938 | 69 | 295 | 5.0 | 12.0 | 0.00 | 0.00 | 0.00 | 52 | 1002.3 |
| 20260509162437 | 69 | 202 | 7.0 | 11.0 | 0.00 | 0.00 | 0.00 | 51 | 1002.1 |
| 20260509161932 | 67 | 196 | 3.0 | 9.0 | 0.00 | 0.00 | 0.00 | 53 | 1001.9 |
| 20260509161429 | 67 | 174 | 4.0 | 14.0 | 0.00 | 0.00 | 0.00 | 53 | 1002.3 |
| 20260509160924 | 67 | 239 | 2.0 | 15.0 | 0.00 | 0.00 | 0.00 | 54 | 1002.2 |
| 20260509160420 | 67 | 168 | 6.0 | 15.0 | 0.00 | 0.00 | 0.00 | 53 | 1002.2 |
| 20260509155916 | 68 | 182 | 5.0 | 9.0 | 0.00 | 0.00 | 0.00 | 52 | 1002.2 |
| 20260509155413 | 66 | 154 | 4.0 | 9.0 | 0.00 | 0.00 | 0.00 | 55 | 1002.3 |
| 20260509154909 | 66 | 184 | 3.0 | 8.0 | 0.00 | 0.00 | 0.00 | 56 | 1002.5 |
| 20260509154405 | 66 | 174 | 4.0 | 15.0 | 0.00 | 0.00 | 0.00 | 55 | 1002.6 |
| 20260509153902 | 65 | 196 | 4.0 | 12.0 | 0.00 | 0.00 | 0.00 | 59 | 1002.4 |
| 20260509153400 | 66 | 187 | 3.0 | 9.0 | 0.00 | 0.00 | 0.00 | 58 | 1002.8 |
| 20260509152856 | 64 | 182 | 5.0 | 11.0 | 0.00 | 0.00 | 0.00 | 61 | 1002.5 |
| 20260509152352 | 66 | 174 | 2.0 | 12.0 | 0.00 | 0.00 | 0.00 | 59 | 1002.5 |
| 20260509151850 | 66 | 203 | 3.0 | 11.0 | 0.00 | 0.00 | 0.00 | 60 | 1002.4 |
| 20260509151345 | 66 | 191 | 4.0 | 8.0 | 0.00 | 0.00 | 0.00 | 60 | 1002.4 |
| 20260509150844 | 64 | 180 | 3.0 | 7.0 | 0.00 | 0.00 | 0.00 | 64 | 1003.0 |
| 20260509150341 | 63 | 197 | 3.0 | 5.0 | 0.00 | 0.00 | 0.00 | 67 | 1002.8 |
| 20260509145839 | 63 | 162 | 2.0 | 14.0 | 0.00 | 0.00 | 0.00 | 66 | 1002.4 |
| 20260509145339 | 62 | 178 | 3.0 | 7.0 | 0.00 | 0.00 | 0.00 | 68 | 1002.8 |
| 20260509144836 | 62 | 164 | 3.0 | 10.0 | 0.00 | 0.00 | 0.00 | 68 | 1003.0 |
| 20260509144333 | 62 | 145 | 3.0 | 7.0 | 0.00 | 0.00 | 0.00 | 69 | 1002.6 |
| 20260509143830 | 61 | 194 | 2.0 | 5.0 | 0.00 | 0.00 | 0.00 | 70 | 1002.8 |
| 20260509143327 | 60 | 189 | 4.0 | 12.0 | 0.00 | 0.00 | 0.00 | 72 | 1002.9 |
| 20260509142823 | 59 | 139 | 2.0 | 6.0 | 0.00 | 0.00 | 0.00 | 74 | 1003.0 |
| 20260509142319 | 58 | 159 | 3.0 | 10.0 | 0.00 | 0.00 | 0.00 | 76 | 1003.1 |
| 20260509141815 | 59 | 228 | 2.0 | 7.0 | 0.00 | 0.00 | 0.00 | 76 | 1003.0 |
| 20260509141312 | 58 | 168 | 0.0 | 8.0 | 0.00 | 0.00 | 0.00 | 77 | 1003.1 |
| 20260509140809 | 57 | 170 | 2.0 | 5.0 | 0.00 | 0.00 | 0.00 | 80 | 1003.1 |
| 20260509140306 | 57 | 175 | 4.0 | 10.0 | 0.00 | 0.00 | 0.00 | 80 | 1003.1 |
| 20260509135804 | 56 | 194 | 3.0 | 9.0 | 0.00 | 0.00 | 0.00 | 83 | 1003.0 |
| 20260509135301 | 55 | 143 | 0.0 | 7.0 | 0.00 | 0.00 | 0.00 | 85 | 1003.2 |
| 20260509134758 | 54 | 256 | 4.0 | 11.0 | 0.00 | 0.00 | 0.00 | 85 | 1003.5 |
| 20260509134255 | 54 | 156 | 2.0 | 7.0 | 0.00 | 0.00 | 0.00 | 87 | 1003.4 |
| 20260509133752 | 53 | 108 | 3.0 | 8.0 | 0.00 | 0.00 | 0.00 | 87 | 1003.7 |
| 20260509133249 | 53 | 173 | 2.0 | 6.0 | 0.00 | 0.00 | 0.00 | 88 | 1003.5 |
| 20260509132748 | 53 | 163 | 3.0 | 7.0 | 0.00 | 0.00 | 0.00 | 89 | 1003.7 |
| 20260509132246 | 53 | 165 | 3.0 | 6.0 | 0.00 | 0.00 | 0.00 | 89 | 1003.8 |
| 20260509131742 | 53 | 209 | 5.0 | 7.0 | 0.00 | 0.00 | 0.00 | 89 | 1003.7 |
| 20260509131239 | 52 | 160 | 2.0 | 8.0 | 0.00 | 0.00 | 0.00 | 90 | 1003.9 |
| 20260509130735 | 52 | 141 | 2.0 | 12.0 | 0.00 | 0.00 | 0.00 | 90 | 1003.8 |
| 20260509130231 | 52 | 147 | 3.0 | 7.0 | 0.00 | 0.00 | 0.00 | 89 | 1004.0 |
| 20260509125727 | 53 | 174 | 4.0 | 6.0 | 0.00 | 0.00 | 0.00 | 89 | 1004.0 |
| 20260509125225 | 53 | 137 | 2.0 | 7.0 | 0.00 | 0.00 | 0.00 | 89 | 1004.1 |
| 20260509124721 | 53 | 159 | 2.0 | 6.0 | 0.00 | 0.00 | 0.00 | 88 | 1004.1 |
| 20260509124218 | 53 | 149 | 4.0 | 9.0 | 0.00 | 0.00 | 0.00 | 88 | 1004.2 |
| 20260509123716 | 53 | 104 | 2.0 | 7.0 | 0.00 | 0.00 | 0.00 | 88 | 1004.1 |
| 20260509123213 | 53 | 171 | 3.0 | 9.0 | 0.00 | 0.00 | 0.00 | 88 | 1004.2 |
| 20260509122708 | 53 | 176 | 3.0 | 7.0 | 0.00 | 0.00 | 0.00 | 89 | 1004.0 |
| 20260509122205 | 53 | 183 | 4.0 | 7.0 | 0.00 | 0.00 | 0.00 | 89 | 1004.1 |
| 20260509121702 | 52 | 169 | 3.0 | 10.0 | 0.00 | 0.00 | 0.00 | 90 | 1004.1 |
| 20260509121200 | 52 | 144 | 2.0 | 8.0 | 0.00 | 0.00 | 0.00 | 90 | 1004.1 |
| 20260509120658 | 52 | 180 | 1.0 | 5.0 | 0.00 | 0.00 | 0.00 | 90 | 1004.2 |
| 20260509120155 | 52 | 148 | 2.0 | 4.0 | 0.00 | 0.00 | 0.00 | 91 | 1004.3 |
| 20260509115653 | 52 | 168 | 4.0 | 8.0 | 0.00 | 0.00 | 0.00 | 91 | 1004.2 |
| 20260509115150 | 52 | 181 | 2.0 | 5.0 | 0.00 | 0.00 | 0.00 | 91 | 1004.1 |
| 20260509114648 | 51 | 217 | 3.0 | 7.0 | 0.00 | 0.00 | 0.00 | 91 | 1004.2 |
| 20260509114147 | 51 | 145 | 2.0 | 7.0 | 0.00 | 0.00 | 0.00 | 92 | 1004.2 |
| 20260509113645 | 51 | 183 | 2.0 | 9.0 | 0.00 | 0.00 | 0.00 | 92 | 1004.3 |
| 20260509113142 | 51 | 186 | 3.0 | 9.0 | 0.00 | 0.00 | 0.00 | 92 | 1004.2 |
| 20260509112638 | 51 | 134 | 2.0 | 6.0 | 0.00 | 0.00 | 0.00 | 93 | 1004.3 |
| 20260509112135 | 51 | 179 | 4.0 | 8.0 | 0.00 | 0.00 | 0.00 | 93 | 1004.3 |
| 20260509111633 | 50 | 152 | 3.0 | 7.0 | 0.00 | 0.00 | 0.00 | 94 | 1004.2 |
| 20260509111129 | 50 | 167 | 3.0 | 7.0 | 0.00 | 0.00 | 0.00 | 94 | 1004.3 |
| 20260509110626 | 50 | 172 | 2.0 | 6.0 | 0.00 | 0.00 | 0.00 | 94 | 1004.3 |
| 20260509110124 | 50 | 183 | 4.0 | 6.0 | 0.00 | 0.00 | 0.00 | 95 | 1004.4 |
| 20260509105622 | 50 | 183 | 4.0 | 5.0 | 0.00 | 0.00 | 0.00 | 95 | 1004.4 |
| 20260509105119 | 50 | 30 | 3.0 | 7.0 | 0.00 | 0.00 | 0.00 | 95 | 1004.7 |
| 20260509104616 | 50 | 250 | 2.0 | 10.0 | 0.00 | 0.00 | 0.00 | 95 | 1004.4 |
| 20260509104112 | 49 | 162 | 3.0 | 6.0 | 0.00 | 0.00 | 0.00 | 95 | 1004.4 |
| 20260509103610 | 49 | 211 | 3.0 | 8.0 | 0.00 | 0.00 | 0.00 | 95 | 1004.4 |
| 20260509103108 | 49 | 208 | 3.0 | 5.0 | 0.00 | 0.00 | 0.00 | 95 | 1004.2 |
| 20260509102605 | 49 | 182 | 3.0 | 5.0 | 0.00 | 0.00 | 0.00 | 95 | 1004.5 |
| 20260509102102 | 49 | 171 | 3.0 | 6.0 | 0.00 | 0.00 | 0.00 | 95 | 1004.8 |
| 20260509101558 | 49 | 138 | 2.0 | 9.0 | 0.00 | 0.00 | 0.00 | 95 | 1004.8 |
| 20260509101055 | 49 | 155 | 1.0 | 5.0 | 0.00 | 0.00 | 0.00 | 95 | 1004.7 |
| 20260509100552 | 49 | 159 | 3.0 | 4.0 | 0.00 | 0.00 | 0.00 | 95 | 1004.6 |
| 20260509100050 | 49 | 151 | 2.0 | 6.0 | 0.00 | 0.00 | 0.00 | 95 | 1004.8 |
| 20260509095546 | 49 | 134 | 1.0 | 7.0 | 0.00 | 0.00 | 0.00 | 94 | 1004.9 |
| 20260509095044 | 49 | 157 | 0.0 | 4.0 | 0.00 | 0.00 | 0.00 | 94 | 1004.9 |
| 20260509094540 | 49 | 239 | 3.0 | 7.0 | 0.00 | 0.00 | 0.00 | 94 | 1004.8 |
| 20260509094037 | 49 | 169 | 3.0 | 7.0 | 0.00 | 0.00 | 0.00 | 94 | 1005.0 |
| 20260509093536 | 49 | 155 | 2.0 | 5.0 | 0.00 | 0.00 | 0.00 | 94 | 1005.0 |
| 20260509093033 | 49 | 160 | 3.0 | 6.0 | 0.00 | 0.00 | 0.00 | 94 | 1005.1 |
| 20260509092530 | 49 | 170 | 2.0 | 3.0 | 0.00 | 0.00 | 0.00 | 94 | 1005.1 |
| 20260509092029 | 49 | 177 | 2.0 | 8.0 | 0.00 | 0.00 | 0.00 | 94 | 1005.1 |
| 20260509091526 | 49 | 200 | 1.0 | 5.0 | 0.00 | 0.00 | 0.00 | 94 | 1005.3 |
| 20260509091022 | 49 | 163 | 3.0 | 5.0 | 0.00 | 0.00 | 0.00 | 94 | 1005.4 |
| 20260509090520 | 49 | 162 | 0.0 | 4.0 | 0.00 | 0.00 | 0.00 | 93 | 1005.2 |
| 20260509090018 | 49 | 162 | 2.0 | 7.0 | 0.00 | 0.00 | 0.00 | 93 | 1005.1 |
| 20260509085514 | 49 | 170 | 3.0 | 5.0 | 0.00 | 0.00 | 0.00 | 93 | 1005.0 |
| 20260509085010 | 49 | 168 | 2.0 | 7.0 | 0.00 | 0.00 | 0.00 | 93 | 1005.3 |
| 20260509084508 | 49 | 177 | 3.0 | 4.0 | 0.00 | 0.00 | 0.00 | 92 | 1005.2 |
| 20260509084005 | 49 | 190 | 3.0 | 6.0 | 0.00 | 0.00 | 0.00 | 92 | 1005.3 |
| 20260509083502 | 49 | 125 | 2.0 | 6.0 | 0.00 | 0.00 | 0.00 | 92 | 1005.0 |
| 20260509082958 | 49 | 155 | 2.0 | 5.0 | 0.00 | 0.00 | 0.00 | 92 | 1005.0 |
| 20260509082456 | 49 | 142 | 2.0 | 6.0 | 0.00 | 0.00 | 0.00 | 91 | 1005.2 |
| 20260509081953 | 49 | 164 | 3.0 | 5.0 | 0.00 | 0.00 | 0.00 | 91 | 1005.1 |
| 20260509081450 | 49 | 179 | 3.0 | 8.0 | 0.00 | 0.00 | 0.00 | 91 | 1005.1 |
| 20260509080947 | 49 | 159 | 4.0 | 6.0 | 0.00 | 0.00 | 0.00 | 90 | 1004.9 |
| 20260509080445 | 49 | 172 | 3.0 | 6.0 | 0.00 | 0.00 | 0.00 | 90 | 1005.1 |
| 20260509075943 | 49 | 175 | 2.0 | 5.0 | 0.00 | 0.00 | 0.00 | 89 | 1005.0 |
| 20260509075440 | 49 | 128 | 1.0 | 5.0 | 0.00 | 0.00 | 0.00 | 88 | 1005.1 |
| 20260509074938 | 49 | 161 | 3.0 | 7.0 | 0.00 | 0.00 | 0.00 | 87 | 1005.2 |
| 20260509074435 | 49 | 173 | 2.0 | 5.0 | 0.00 | 0.00 | 0.00 | 87 | 1005.3 |
| 20260509073931 | 49 | 178 | 3.0 | 6.0 | 0.00 | 0.00 | 0.00 | 86 | 1005.2 |
| 20260509073428 | 49 | 179 | 3.0 | 6.0 | 0.00 | 0.00 | 0.00 | 85 | 1005.3 |
| 20260509072924 | 49 | 138 | 2.0 | 6.0 | 0.00 | 0.00 | 0.00 | 84 | 1005.3 |
| 20260509072421 | 49 | 172 | 3.0 | 5.0 | 0.00 | 0.00 | 0.00 | 83 | 1005.5 |
| 20260509071917 | 49 | 201 | 1.0 | 6.0 | 0.00 | 0.00 | 0.00 | 82 | 1005.5 |
| 20260509071414 | 49 | 171 | 2.0 | 5.0 | 0.00 | 0.00 | 0.00 | 81 | 1005.6 |
| 20260509070912 | 49 | 194 | 3.0 | 6.0 | 0.00 | 0.00 | 0.00 | 80 | 1005.6 |
| 20260509070408 | 50 | 178 | 3.0 | 6.0 | 0.00 | 0.00 | 0.00 | 79 | 1005.8 |
| 20260509065904 | 50 | 193 | 2.0 | 5.0 | 0.00 | 0.00 | 0.00 | 78 | 1005.7 |
| 20260509065401 | 50 | 137 | 2.0 | 8.0 | 0.00 | 0.00 | 0.00 | 76 | 1005.6 |
| 20260509064857 | 50 | 185 | 3.0 | 7.0 | 0.00 | 0.00 | 0.00 | 75 | 1005.8 |
| 20260509064354 | 50 | 184 | 4.0 | 7.0 | 0.00 | 0.00 | 0.00 | 73 | 1005.7 |
| 20260509063852 | 50 | 149 | 2.0 | 4.0 | 0.00 | 0.00 | 0.00 | 70 | 1006.0 |
| 20260509063347 | 50 | 176 | 3.0 | 6.0 | 0.00 | 0.00 | 0.00 | 68 | 1006.0 |
| 20260509062839 | 50 | 187 | 3.0 | 6.0 | 0.00 | 0.00 | 0.00 | 64 | 1005.8 |
| 20260509062336 | 51 | 133 | 3.0 | 7.0 | 0.00 | 0.00 | 0.00 | 60 | 1005.9 |
| 20260509061833 | 51 | 177 | 2.0 | 7.0 | 0.00 | 0.00 | 0.00 | 57 | 1006.0 |
| 20260509061331 | 51 | 188 | 3.0 | 6.0 | 0.00 | 0.00 | 0.00 | 52 | 1006.1 |
| 20260509060828 | 51 | 171 | 2.0 | 5.0 | 0.00 | 0.00 | 0.00 | 49 | 1006.0 |
| 20260509060326 | 51 | 148 | 4.0 | 7.0 | 0.00 | 0.00 | 0.00 | 47 | 1006.1 |
| 20260509055820 | 51 | 228 | 2.0 | 5.0 | 0.00 | 0.00 | 0.00 | 47 | 1006.1 |
| 20260509055316 | 51 | 191 | 3.0 | 6.0 | 0.00 | 0.00 | 0.00 | 46 | 1006.4 |
| 20260509054813 | 50 | 178 | 2.0 | 4.0 | 0.00 | 0.00 | 0.00 | 47 | 1006.2 |
| 20260509054310 | 50 | 163 | 1.0 | 4.0 | 0.00 | 0.00 | 0.00 | 46 | 1006.2 |
| 20260509053808 | 50 | 168 | 3.0 | 3.0 | 0.00 | 0.00 | 0.00 | 44 | 1006.2 |
| 20260509053305 | 50 | 156 | 1.0 | 4.0 | 0.00 | 0.00 | 0.00 | 42 | 1006.4 |
| 20260509052804 | 50 | 160 | 1.0 | 3.0 | 0.00 | 0.00 | 0.00 | 41 | 1006.5 |
| 20260509052301 | 50 | 145 | 1.0 | 3.0 | 0.00 | 0.00 | 0.00 | 41 | 1006.7 |
| 20260509051758 | 50 | 142 | 2.0 | 3.0 | 0.00 | 0.00 | 0.00 | 41 | 1006.6 |
| 20260509051256 | 49 | 139 | 1.0 | 3.0 | 0.00 | 0.00 | 0.00 | 41 | 1006.6 |
| 20260509050752 | 49 | 103 | 0.0 | 3.0 | 0.00 | 0.00 | 0.00 | 42 | 1006.6 |
| 20260509050248 | 49 | 126 | 2.0 | 3.0 | 0.00 | 0.00 | 0.00 | 42 | 1006.7 |
| 20260509045746 | 49 | 167 | 0.0 | 3.0 | 0.00 | 0.00 | 0.00 | 41 | 1006.8 |
| 20260509045242 | 49 | 129 | 1.0 | 2.0 | 0.00 | 0.00 | 0.00 | 41 | 1006.7 |
| 20260509044740 | 50 | 151 | 2.0 | 3.0 | 0.00 | 0.00 | 0.00 | 40 | 1006.6 |
| 20260509044238 | 50 | 129 | 2.0 | 3.0 | 0.00 | 0.00 | 0.00 | 41 | 1006.8 |
| 20260509043734 | 50 | 169 | 2.0 | 3.0 | 0.00 | 0.00 | 0.00 | 39 | 1007.0 |
| 20260509043230 | 50 | 142 | 2.0 | 3.0 | 0.00 | 0.00 | 0.00 | 40 | 1006.9 |
| 20260509042726 | 49 | 121 | 0.0 | 3.0 | 0.00 | 0.00 | 0.00 | 44 | 1006.9 |
| 20260509042223 | 48 | 131 | 1.0 | 2.0 | 0.00 | 0.00 | 0.00 | 45 | 1007.0 |
| 20260509041719 | 48 | 106 | 0.0 | 1.0 | 0.00 | 0.00 | 0.00 | 45 | 1007.0 |